Location: Zagreb
(45.8000°N, 16.0000°E)
Time: 20:06:32
(UTC+02:00)

A-11 Canister half - Pass Details

Date: 11 August 2022
Orbit: 1524 x 1684 km, 47.3° (Epoch: 05 October)

Event Time Altitude Azimuth Distance (km) Brightness Sun altitude
Rises 08:38:29 0° 261° (W) 4,930 11.1 27.7°
Reaches altitude 10° 08:41:39 10° 262° (W) 3,947 10.7 28.3°
Maximum altitude 08:51:53 84° 352° (N) 1,689 9.7 30.0°
Drops below altitude 10° 09:01:59 10° 82° (E) 3,898 12.4 31.8°
Sets 09:05:05 0° 83° (E) 4,867 12.6 32.3°
